Location: Aber-Menai Point
(53.1333°N, 4.3333°W)
Time: 12:59:57
(UTC+00:00)

Daily predictions for brighter satellites

Satellite Brightness Start Highest point End
(mag) Time Altitude Azimuth Time Altitude Azimuth Time Altitude Azimuth
Cosmos 2082 Rocket 3.3 21:29:26 10° SSE 21:34:03 26° ESE 21:38:39 10° NE
USA 245 3.6 21:31:57 10° S 21:35:50 55° WSW 21:38:59 10° NNW
Cosmos 1536 Rocket 3.6 21:32:05 10° S 21:36:25 87° W 21:40:50 10° N
Cosmos 1606 Rocket 3.6 21:34:12 10° N 21:38:32 66° ENE 21:42:51 10° SSE
ARIANE 5 R/B 2.9 21:36:15 10° SSE 21:40:37 56° ENE 21:44:57 10° N
Cosmos 2360 Rocket 4.2 21:37:37 10° NNW 21:41:57 22° NNE 21:46:16 10° E
Meteor 1-21 Rocket 4.3 21:39:21 10° S 21:44:53 64° E 21:50:34 10° NNE
SPOT 3 Rocket 4.5 21:48:14 10° S 21:53:13 46° W 21:58:17 10° NNW
Cosmos 1726 Rocket 3.5 21:56:55 10° N 22:01:16 85° E 22:05:36 10° SSE
Cosmos 1892 3.7 22:02:06 11° SSE 22:05:13 30° E 22:08:34 10° NNE
Nadezhda 1 Rocket 4.0 22:05:33 10° S 22:11:38 88° W 22:17:46 10° N
USA 234 3.4 22:07:52 10° ESE 22:14:27 79° NNE 22:21:01 10° WNW
SL-16 R/B 3.0 22:10:04 10° NNW 22:15:32 46° NE 22:20:58 10° ESE
Cosmos 1980 Rocket 2.4 22:09:56 10° NW 22:15:37 70° WSW 22:20:52 12° SSE
Cosmos 1697 Rocket 3.7 22:10:27 10° NW 22:15:39 40° WSW 22:20:49 10° S
Cosmos 1486 Rocket 4.3 22:11:05 10° NNW 22:16:17 60° ENE 22:21:05 12° SE
Cosmos 2219 Rocket 4.4 22:14:49 10° NNW 22:18:58 20° NNE 22:23:08 10° ENE
Cosmos 2369 4.1 22:13:33 10° NW 22:19:13 61° WSW 22:24:30 12° SSE
Cosmos 1331 Rocket 4.2 22:15:14 10° SSW 22:20:33 79° WNW 22:25:53 10° NNE
CZ-2C R/B 3.8 22:19:41 10° NNE 22:24:17 79° WNW 22:28:46 10° SSW
Cosmos-2242 4.5 22:24:08 10° N 22:27:45 26° ENE 22:31:12 11° SE
COSMOS 2406 3.2 22:22:07 10° SSW 22:27:52 77° ESE 22:33:39 10° NE
ATLAS 5 CENTAUR R/B 2.5 22:29:23 15° SSE 22:31:30 23° ESE 22:34:48 10° ENE
CZ-4B R/B 4.4 22:31:16 10° NW 22:32:04 11° WNW 22:32:53 10° WNW
Cosmos 1869 3.6 22:28:18 10° N 22:32:08 53° ENE 22:35:09 16° SSE
SPOT 5 4.3 22:30:19 10° SSW 22:34:01 27° W 22:37:45 10° NW
In-Cosmos 22 Rocket 4.4 22:30:23 12° S 22:35:17 52° E 22:40:32 10° NNE
Meteor 1-27 4.2 22:32:16 10° N 22:37:52 76° ENE 22:42:35 15° SSE
FALCON 9 DEB 3.5 22:37:02 10° W 22:40:09 42° SSW 22:42:17 17° SE
Terra 3.0 22:35:55 10° SSW 22:40:18 36° W 22:44:44 10° NNW
ASTEX 1 3.4 22:36:15 10° N 22:41:17 79° E 22:45:50 13° S
ALOS 2 3.8 22:39:48 12° SE 22:43:27 33° ENE 22:47:24 10° N
Cosmos 1833 Rocket 3.3 22:38:15 10° SW 22:43:46 59° NW 22:49:22 10° NNE
Cosmos 1892 Rocket 3.8 22:41:46 10° SSW 22:46:09 70° WNW 22:50:31 10° N
BREEZE-M DEB (TANK) 3.3 22:44:08 10° WSW 22:46:52 54° S 22:55:25 10° ESE
SL-8 Rocket 4.1 22:41:17 10° NNW 22:47:32 80° W 22:53:00 14° S
Cosmos 2058 Rocket 3.5 22:44:26 10° NNW 22:48:46 57° W 22:52:35 13° S
Cosmos 1302 Rocket 4.0 22:45:47 10° SSW 22:51:00 84° WNW 22:56:14 10° NNE
Cosmos 2322 Rocket 2.7 22:45:30 10° NNW 22:51:07 57° NE 22:56:24 12° SE
Cosmos 1825 2.3 22:49:40 18° S 22:52:18 55° E 22:56:00 10° NNE
ADEOS Rocket 4.0 22:45:43 12° SE 22:52:29 56° ENE 23:00:02 10° N
Cosmos 1408 2.7 22:50:12 12° SSW 22:53:22 66° WNW 22:56:49 10° N
Cosmos 1503 Rocket 4.1 22:49:00 10° NNW 22:54:20 73° ENE 22:58:35 16° SE
Cosmos 1626 Rocket 3.7 22:54:44 17° S 22:57:56 59° E 23:02:15 10° NNE
USA 276 2.7 22:58:48 10° W 23:01:35 33° SSW 23:02:50 23° SSE
Cosmos 2278 4.1 22:56:19 10° NW 23:01:54 54° WSW 23:06:17 16° S
Meteor 1-11 4.4 22:58:25 10° SSW 23:04:00 71° WNW 23:09:36 10° N
Cosmos 2333 Rocket 3.5 23:00:48 10° NNW 23:06:09 37° NE 23:11:30 10° ESE
Cosmos 2366 rocket 4.2 23:00:18 10° NNW 23:06:38 71° W 23:12:00 15° S
SJ 16-02 1.7 23:04:34 10° NNW 23:09:00 61° ENE 23:12:19 17° SE
Cosmos 2218 Rocket 4.3 23:03:50 10° NNW 23:10:13 68° W 23:15:36 15° S
GP-B 3.9 23:12:48 10° N 23:17:04 47° W 23:21:00 12° SSW
Cosmos 2082 Rocket 2.5 23:11:57 10° SW 23:17:40 71° NW 23:23:23 10° NNE
SAR-Lupe-4 4.1 23:14:21 10° N 23:17:52 55° WNW 23:21:03 12° SSW
H-2A R/B 4.2 23:14:32 10° NNE 23:18:31 38° E 23:20:56 20° SSE
USA 267 3.4 23:14:40 10° ENE 23:21:03 51° SE 23:27:23 10° SW
Cosmos 2221 4.1 23:21:09 10° N 23:24:53 27° ENE 23:28:17 12° ESE
Cosmos 1606 2.9 23:22:03 10° N 23:25:53 63° ENE 23:28:16 22° SSE
Cosmos 2360 Rocket 2.5 23:21:22 10° NNW 23:27:03 67° NE 23:32:00 14° SE
Cosmos 1934 Rocket 4.5 23:22:18 10° N 23:28:14 51° ENE 23:33:06 16° SE
Cosmos 2058 3.9 23:26:08 19° SE 23:28:30 34° E 23:32:18 10° NNE
Spot 4 4.0 23:27:39 19° S 23:31:00 67° WSW 23:35:49 10° NNW
Okean 1-7 Rocket 4.3 23:36:05 13° SSW 23:39:58 51° WNW 23:44:24 10° N
Cosmos 1892 4.5 23:37:31 10° SW 23:40:46 27° WNW 23:44:04 10° N
Cosmos 2237 4.3 23:37:01 10° NW 23:42:45 73° WSW 23:46:53 19° SSE
Cosmos 1633 2.6 23:45:55 21° SSW 23:48:03 66° WNW 23:51:32 10° N
Cosmos 1758 Rocket 3.5 23:45:44 20° SSW 23:48:40 87° W 23:53:07 10° N
Cosmos 2237 Rocket 4.4 23:46:30 10° NNW 23:51:01 23° NNE 23:55:30 10° E
COSMOS 2428 3.9 23:47:34 10° NNW 23:52:58 41° NE 23:58:22 10° ESE
